Lafayette, IN

10:32 AM EDT on April 29, 2017 (GMT -0400)
Purdue Univ

Weather History for KLAF - December, 2013

Change the Weather History Date:

Tuesday, December 17, 2013

  Actual Average Record
Temperature  
Mean Temperature 23 °F 30 °F  
Max Temperature 28 °F 37 °F 58 °F (1984)
Min Temperature 17 °F 22 °F 1 °F (1972)
Degree Days  
Heating Degree Days 42 35  
Month to date heating degree days 658 555  
Since 1 July heating degree days 1834 1656  
Cooling Degree Days 0 0  
Month to date cooling degree days 0 0  
Year to date cooling degree days 884 983  
Moisture  
Dew Point 20 °F    
Average Humidity 87    
Maximum Humidity 100    
Minimum Humidity 74    
Precipitation  
Precipitation T in 0.07 in 0.74 in (1957)
Month to date precipitation 0.70 1.47  
Year to date precipitation 38.18 35.54  
Sea Level Pressure  
Sea Level Pressure 30.08 in    
Wind  
Wind Speed 10 mph (WSW)    
Max Wind Speed 16 mph    
Max Gust Speed 22 mph    
Visibility 5 miles    
Events Snow    
T = Trace of Precipitation, MM = Missing Value Source: NWS Daily Summary

Daily Weather History Graph

Daily Weather History Graph

Search for Another Location

Airport or City:

Trip Planner

Search our weather history database for the weather conditions in past years. The results will help you decide how hot, cold, wet, or windy it might be!

Date:

Astronomy

Dec. 17, 2013 Rise Set
Actual Time 8:05 AM EST 5:22 PM EST
Civil Twilight 7:34 AM EST 5:53 PM EST
Nautical Twilight 7:00 AM EST 6:28 PM EST
Astronomical Twilight 6:26 AM EST 7:01 PM EST
Moon 6:02 PM EST (12/17) 8:01 AM EST (12/17)
Length of Visible Light 10h 19m
Length of Day
9h 17m
Full, 100% of the Moon is Illuminated
Dec 17
Full
Dec 25
Last Quarter
Jan 1
New
Jan 7
First Quarter
Jan 15
Full

Hourly Weather History & Observations

Time (EST) Temp. Windchill Dew Point Humidity Pressure Visibility Wind Dir Wind Speed Gust Speed Precip Events Conditions
12:02 AM 21.9 °F 11.0 °F 21.0 °F 96% 30.06 in 3.0 mi WNW 10.4 mph - N/A   Overcast
12:54 AM 21.9 °F 10.4 °F 19.9 °F 92% 30.09 in 3.0 mi WNW 11.5 mph - N/A   Overcast
1:54 AM 21.0 °F 10.6 °F 19.9 °F 96% 30.08 in 5.0 mi WNW 9.2 mph - N/A   Overcast
2:54 AM 19.9 °F 9.3 °F 19.0 °F 96% 30.09 in 4.0 mi West 9.2 mph - N/A   Overcast
3:54 AM 19.9 °F 7.9 °F 18.0 °F 92% 30.10 in 4.0 mi West 11.5 mph - N/A   Overcast
4:54 AM 19.0 °F 7.5 °F 17.1 °F 92% 30.11 in 6.0 mi WNW 10.4 mph - N/A   Overcast
5:54 AM 18.0 °F 6.1 °F 16.0 °F 92% 30.11 in 6.0 mi West 10.4 mph - N/A   Overcast
6:54 AM 18.0 °F 8.7 °F 16.0 °F 92% 30.10 in 5.0 mi WNW 6.9 mph - N/A   Overcast
7:54 AM 17.1 °F 6.6 °F 16.0 °F 96% 30.13 in 6.0 mi West 8.1 mph - N/A   Overcast
8:54 AM 18.0 °F 9.8 °F 17.1 °F 96% 30.12 in 4.0 mi SW 5.8 mph - N/A   Overcast
9:54 AM 19.0 °F 9.0 °F 17.1 °F 92% 30.13 in 4.0 mi SW 8.1 mph - N/A   Overcast
10:44 AM 19.9 °F 8.6 °F 19.0 °F 96% 30.07 in 2.5 mi SW 10.4 mph - N/A   Overcast
10:54 AM 19.9 °F 7.3 °F 19.0 °F 96% 30.09 in 2.5 mi SW 12.7 mph - N/A   Overcast
11:54 AM 21.0 °F 7.6 °F 19.0 °F 92% 30.08 in 2.5 mi SW 15.0 mph - N/A   Overcast
12:01 PM 21.0 °F 9.3 °F 19.0 °F 92% 30.05 in 4.0 mi SW 11.5 mph 21.9 mph N/A   Overcast
12:54 PM 23.0 °F 13.1 °F 19.9 °F 88% 30.07 in 4.0 mi WSW 9.2 mph - N/A   Overcast
1:11 PM 23.0 °F 13.1 °F 19.9 °F 88% 30.04 in 1.8 mi SW 9.2 mph - 0.00 in Snow Light Snow
1:20 PM 23.0 °F 13.1 °F 19.9 °F 88% 30.04 in 1.0 mi SW 9.2 mph - 0.00 in Snow Light Snow
1:31 PM 24.1 °F 13.7 °F 19.9 °F 84% 30.04 in 3.0 mi WSW 10.4 mph - 0.00 in Snow Light Snow
1:43 PM 24.1 °F 13.1 °F 21.0 °F 88% 30.02 in 2.0 mi SW 11.5 mph - 0.00 in Snow Light Snow
1:54 PM 24.1 °F 13.1 °F 21.0 °F 88% 30.04 in 5.0 mi SW 11.5 mph - 0.00 in   Overcast
2:21 PM 26.1 °F 15.6 °F 21.9 °F 84% 30.01 in 2.5 mi WSW 11.5 mph - 0.00 in Snow Light Snow
2:54 PM 26.1 °F 17.6 °F 21.9 °F 84% 30.04 in 5.0 mi WSW 8.1 mph 19.6 mph 0.00 in   Overcast
3:54 PM 27.0 °F 17.3 °F 24.1 °F 89% 30.05 in 6.0 mi WSW 10.4 mph - N/A   Overcast
4:20 PM 27.0 °F 18.7 °F 23.0 °F 85% 30.03 in 6.0 mi WSW 8.1 mph - N/A   Scattered Clouds
4:44 PM 28.0 °F 20.0 °F 23.0 °F 81% 30.04 in 6.0 mi WSW 8.1 mph - N/A   Haze
4:54 PM 28.0 °F 19.3 °F 23.0 °F 81% 30.07 in 6.0 mi WSW 9.2 mph - N/A   Haze
5:20 PM 27.0 °F 15.6 °F 23.0 °F 85% 30.05 in 7.0 mi WSW 13.8 mph 19.6 mph N/A   Partly Cloudy
5:54 PM 27.0 °F 17.3 °F 23.0 °F 85% 30.08 in 8.0 mi WSW 10.4 mph - N/A   Clear
6:54 PM 25.0 °F 15.5 °F 21.9 °F 88% 30.11 in 9.0 mi WSW 9.2 mph - N/A   Clear
7:54 PM 24.1 °F 16.0 °F 21.0 °F 88% 30.12 in 10.0 mi WSW 6.9 mph - N/A   Clear
8:54 PM 21.0 °F 13.4 °F 19.0 °F 92% 30.14 in 10.0 mi SW 5.8 mph - N/A   Clear
9:54 PM 23.0 °F 13.1 °F 16.0 °F 74% 30.14 in 10.0 mi West 9.2 mph - N/A   Clear
10:54 PM 21.9 °F 10.4 °F 15.1 °F 75% 30.15 in 10.0 mi West 11.5 mph - N/A   Clear
11:54 PM 21.0 °F 9.9 °F 14.0 °F 74% 30.17 in 10.0 mi West 10.4 mph - N/A   Scattered Clouds